Flag for Slovakia Weather past 2 weeks in Košice, Slovakia

Now
39 °F

Mixture of precip. Fog.


Feels Like: 39 °F
Forecast: 34 / 48 °F
Wind: 2 mph from Northwest

Location: Kosice - Barca

Current Time: Feb 27, 2015 at 7:40:25 AM

Latest Report: Feb 27, 2015 at 7:00 AM


Visibility: 3 mi

Pressure: 30.01 "Hg

Humidity: 93%

Dew point: 37 °F

Location of KošiceLocation

Historic Weather in Košice — Graph

°F

Košice temperature yesterday

Maximum temperature yesterday: 45 °F (at 10:00 AM)
Minimum temperature yesterday: 41 °F (at 12:00 AM)
Average temperature yesterday: 43 °F

Past Weeks' High & Low Weather Summary

 TemperatureHumidityPressure
High52 °F (Feb 24, 2:30 PM)100% (Feb 12, 6:00 AM)30.72 "Hg (Feb 12, 6:00 AM)
Low19 °F (Feb 18, 5:30 AM)30% (Feb 17, 1:30 PM)29.68 "Hg (Feb 23, 3:30 PM)
Average36 °F76%30.13 "Hg
* Reported Feb 12 6:00 AM — Feb 27 6:30 AM, Košice, Weather by CustomWeather, © 2015

Note: Actual official high and low records may vary slightly from our data, if they occured in-between our weather recording intervals... More about our weather records

Advertising

Košice weather history for previous 24 hours

 ConditionsComfort  
Time TempWeatherWind HumidityBarometerVisibility
6:30 AM
Fri, Feb 27
39 °FFog.1 mph93%29.98 "Hg3 mi
6:00 AM39 °FPassing clouds.1 mph93%29.98 "HgN/A
5:30 AM39 °FPassing clouds.2 mph93%29.98 "HgN/A
4:30 AM39 °FPassing clouds.2 mph93%29.98 "HgN/A
4:00 AM39 °FPassing clouds.3 mph93%29.98 "HgN/A
3:30 AM39 °FPassing clouds.3 mph93%29.98 "HgN/A
3:00 AM39 °FPassing clouds.3 mph93%30.01 "HgN/A
2:30 AM41 °FPassing clouds.5 mph87%30.01 "HgN/A
2:00 AM41 °FPassing clouds.3 mph87%30.01 "HgN/A
1:30 AM41 °FPassing clouds.5 mph87%30.01 "HgN/A
1:00 AM41 °FPassing clouds.5 mph87%30.01 "HgN/A
12:30 AM41 °FPassing clouds.7 mph87%30.01 "HgN/A
12:00 AM41 °FPassing clouds.8 mph87%30.04 "HgN/A
11:30 PM
Thu, Feb 26
41 °FPassing clouds.8 mph87%30.04 "HgN/A
11:00 PM41 °FPassing clouds.9 mph87%30.04 "HgN/A
10:30 PM43 °FLight rain. Passing clouds.9 mph81%30.04 "HgN/A
10:00 PM43 °FPassing clouds.8 mph76%30.04 "HgN/A
9:30 PM43 °FPassing clouds.8 mph76%30.04 "HgN/A
9:00 PM43 °FPassing clouds.10 mph81%30.04 "HgN/A
8:30 PM43 °FPassing clouds.14 mph81%30.04 "HgN/A
8:00 PM43 °FPassing clouds.15 mph81%30.04 "HgN/A
7:30 PM43 °FPassing clouds.14 mph81%30.04 "HgN/A
7:00 PM43 °FPassing clouds.13 mph81%30.04 "HgN/A
6:30 PM43 °FOvercast.15 mph81%30.04 "HgN/A
6:00 PM43 °FPassing clouds.10 mph81%30.04 "HgN/A
5:30 PM43 °FPassing clouds.13 mph81%30.04 "HgN/A
5:00 PM43 °FPartly sunny.15 mph81%30.04 "HgN/A
4:30 PM43 °FPartly sunny.17 mph81%30.04 "HgN/A
4:00 PM45 °FPartly sunny.15 mph76%30.01 "HgN/A
3:30 PM45 °FScattered clouds.14 mph76%30.01 "HgN/A
3:00 PM45 °FBroken clouds.17 mph76%30.01 "HgN/A
2:30 PM45 °FPartly sunny.17 mph76%30.01 "HgN/A
2:00 PM45 °FPartly sunny.17 mph76%30.01 "HgN/A
1:30 PM45 °FPartly sunny.15 mph76%30.01 "HgN/A
1:00 PM45 °FPartly sunny.15 mph76%30.01 "HgN/A
12:30 PM45 °FPartly sunny.17 mph76%30.01 "HgN/A
12:00 PM45 °FBroken clouds.17 mph76%30.04 "HgN/A
11:30 AM45 °FPartly sunny.17 mph71%30.04 "HgN/A
11:00 AM45 °FPartly sunny.18 mph76%30.04 "HgN/A
10:30 AM45 °FPartly sunny.18 mph71%30.01 "HgN/A
10:00 AM45 °FPartly sunny.17 mph71%30.01 "HgN/A
9:30 AM43 °FPartly sunny.16 mph76%30.01 "HgN/A
9:00 AM43 °FPartly sunny.17 mph76%30.01 "HgN/A
8:30 AM43 °FBroken clouds.10 mph76%30.01 "HgN/A
8:00 AM43 °FPartly sunny.15 mph76%30.01 "HgN/A
7:00 AM41 °FOvercast.15 mph81%29.98 "HgN/A
Weather by CustomWeather, © 2015

See weather overviewHow to use our weather pages